Regional Weather Roundup
Issued by NWS

Home | Current Version | Previous Version | Graphics & Text | Print | Product List | Glossary On
Versions: 1 2 3 4 5 6 7 8 9 10 11 12 13 14 15 16 17 18 19 20 21 22 23 24 25 26 27 28 29 30 31 32 33 34 35 36 37 38 39 40 41 42 43 44 45 46 47 48 49 50
000
ASUS43 KLOT 180808
RWRIL

ILLINOIS REGIONAL WEATHER ROUNDUP
NATIONAL WEATHER SERVICE CHICAGO/ROMEOVILLE IL
300 AM CDT SAT APR 18 2015

NOTE: "FAIR" INDICATES FEW OR NO CLOUDS BELOW 12,000 FEET WITH NO
SIGNIFICANT WEATHER AND/OR OBSTRUCTIONS TO VISIBILITY.

* THESE STATIONS ARE NOT UNDER NWS QUALITY CONTROL. THEY ALSO MAY NOT
  REPORT WEATHER SUCH AS PRECIPITATION OR FOG.

ILZ001-002-007-009-015-016-024-180900-
NORTHWEST ILLINOIS

CITY           SKY/WX    TMP DP  RH WIND       PRES   REMARKS
MOLINE         PTCLDY    50  45  83 CALM      29.99F
STERLING*      PTCLDY    54  46  76 CALM      30.02R
SAVANNA*       MOCLDY    53  48  84 CALM      30.01S
$$

ILZ003-004-008-010-011-017-018-180900-
NORTH CENTRAL ILLINOIS

CITY           SKY/WX    TMP DP  RH WIND       PRES   REMARKS
ROCKFORD       MOCLDY    56  48  74 N3        30.04R
FREEPORT*      MOCLDY    52  46  81 CALM      30.03S
ROCHELLE*      MOCLDY    51  44  77 CALM      30.02S
DE KALB*       PTCLDY    57  45  62 SW3       30.02S
PERU*          CLEAR     60  48  64 S3        30.02S
$$

ILZ005-006-012>014-019>023-180900-
NORTHEAST ILLINOIS

CITY           SKY/WX    TMP DP  RH WIND       PRES   REMARKS
CHICAGO-OHARE  PTCLDY    63  47  55 SW6       30.00S
CHICAGO-MIDWAY MOCLDY    65  49  56 SW8       30.01S
AURORA         PTCLDY    53  46  77 CALM      30.02S
LANSING*       PTCLDY    58  46  63 CALM      30.02S
JOLIET*        PTCLDY    54  50  86 CALM      30.02S
WAUKEGAN       CLEAR     56  46  69 W5        30.00S
DUPAGE AIRPORT PTCLDY    54  49  83 CALM      30.01S
KANKAKEE*      CLEAR     56  49  78 SW5       30.04R
WHEELING       CLEAR     55  46  71 CALM      30.02R
MORRIS*        CLEAR     59  48  66 SW3       29.99S
ROMEOVILLE*    PTCLDY    58  48  68 CALM      30.02S
NORTHERLY ISL    N/A     65  47  52 SW6         N/A
$$

LMZ740>746-180900-
SOUTHERN LAKE MICHIGAN

STATION/POSITION SKY/WX   TEMP    WIND        PRES    VSBY  WAVE
                          AIR SEA DIR/SP/G                  HT/PER
                          (F)     (DEG/KT/KT) (MB)    (MI)  (FT/S)
HARRISON CRIB              68     210/ 15/ 17   N/A
BURNHAM HARBOR             65     260/  6/  9   N/A
CALUMET HARBOR             64     210/  6/  8   N/A
BURNS HARBOR               64     210/ 12/ 15 1016.9S
MICHIGAN CITY              65     180/  7/  8   N/A
MICHIGAN CITY 6N           53 47                N/A           0
$$

ILZ025>027-034>036-040-047-049-050-058-095>099-180900-
WEST-CENTRAL ILLINOIS

CITY           SKY/WX    TMP DP  RH WIND       PRES   REMARKS
QUINCY         MOCLDY    62  53  72 S5        30.00F
GALESBURG*     PTCLDY    55  51  87 CALM      30.01S
MACOMB*        CLEAR     53  48  82 CALM      30.03F
JACKSONVILLE*  CLEAR     62  55  77 S3        30.02S
PITTSFIELD*    PTCLDY    61  53  75 CALM      30.02F
$$

ILZ028>032-037-038-041>044-048-051>054-059>061-180900-
CENTRAL ILLINOIS

CITY           SKY/WX    TMP DP  RH WIND       PRES   REMARKS
PONTIAC        PTCLDY    64  53  69 S5        30.03F
BLOOMINGTON    CLEAR     58  52  80 S6        30.05S
DECATUR        CLEAR     52  48  86 CALM      30.03S
PEORIA         PTCLDY    62  52  69 S3        30.02S
LACON*         PTCLDY    59  51  75 CALM      30.01S
LINCOLN*       PTCLDY    55  49  80 E3        30.02S
SPRINGFIELD    CLEAR     58  52  80 CALM      30.02S
TAYLORVILLE    CLEAR     57  54  88 CALM      30.02S
$$

ILZ033-039-045-046-055>057-062-063-180900-
EAST-CENTRAL ILLINOIS

CITY           SKY/WX    TMP DP  RH WIND       PRES   REMARKS
CHAMPAIGN      CLEAR     57  48  72 CALM      30.03S
DANVILLE*      CLEAR     56  47  73 CALM      30.01S
RANTOUL*       CLOUDY    60  52  76 CALM      30.04S
MATTOON        CLEAR     55  50  83 S5        30.02S
PARIS*         CLEAR     54  52  92 CALM      30.04F
$$

ILZ079-100>102-180900-
SOUTHWEST ILLINOIS

CITY           SKY/WX    TMP DP  RH WIND       PRES   REMARKS
ALTON          PTCLDY    57  56  95 CALM      30.02R
BELLEVILLE     CLEAR     57  57 100 CALM      29.99F FOG
CAHOKIA*       MOCLDY    58  56  93 CALM      30.00F FOG
SPARTA*        PTCLDY    59  56  91 CALM      30.01F
$$

ILZ064>066-069>071-074>076-080>082-084>086-088>090-092>094-180900-
SOUTH-CENTRAL ILLINOIS

CITY           SKY/WX    TMP DP  RH WIND       PRES   REMARKS
CARBONDALE     PTCLDY    58  57  97 CALM      30.00S FOG
CAIRO*         FOG       58  58 100 CALM      30.00F VSB 1/4
EFFINGHAM*     CLEAR     54  51  89 CALM      30.04S
MARION         PTCLDY    55  55 100 CALM      30.01S FOG
MT. VERNON     CLEAR     52  46  82 CALM      30.01S
CENTRALIA*     CLEAR     55  53  93 CALM      30.01R
SALEM*         CLEAR     57  54  89 CALM      30.02S
METROPOLIS*    FOG       60  60 100 CALM      29.99F VSB 1/2
$$

ILZ067-068-072-073-078-083-087-091-180900-
SOUTHEAST ILLINOIS

CITY           SKY/WX    TMP DP  RH WIND       PRES   REMARKS
LAWRENCEVILLE  CLEAR     54  53  97 N3        30.02F
FLORA*         CLEAR     55  54  97 N3        30.02F FOG
FAIRFIELD*     CLEAR     57  56  96 CALM      30.00S FOG
HARRISBURG*    PTCLDY    58  58 100 CALM      30.01F FOG
ROBINSON*      CLEAR     52  51  97 CALM      30.04S
CARMI*         FOG       54  51  89 CALM      30.00F VSB 1/4
$$

ABBREVIATIONS USED IN REMARKS
   TC - TEMPERATURE IN CELSIUS
  WCI - WIND CHILL INDEX
   HX - HEAT INDEX
  VSB - VISIBILITY
$$




USA.gov is the U.S. government's official web portal to all federal, state and local government web resources and services.